Tracking 26325 objects as of 29-Nov-2022
HD Live streaming from Space Station
objects crossing your sky now

COSMOS 1375 DEB

Track COSMOS 1375 DEB now!
10-day predictions


NORAD ID: 16377
Int'l Code: 1982-055R
Perigee: 863.9 km
Apogee: 928.7 km
Inclination: 65.8 °
Period: 102.8 minutes
Semi major axis: 7267 km
RCS: 0.033 m2 (small)
Launch date: June 6, 1982
Source: Commonwealth of Independent States (former USSR) (CIS)
Launch site: PLESETSK MISSILE AND SPACE COMPLEX (PKMTR)

Note: This is SATELLITE DEBRIS
aabbcc
Your satellite tracking list
Your tracking list is empty




NASA's NSSDC Master Catalog

Two Line Element Set (TLE):
1 16377U 82055R   22332.64627255  .00000820  00000-0  59552-3 0  9992
2 16377  65.8236 126.0658 0044596 327.2387 118.5020 14.01329014885018
Source of the keplerian elements: AFSPC